User: anonymous   Login
Location: Unspecified
(0.0000°N, 0.0000°E)
Time: 04:22:02
(UTC+00:00)
Language:

Aussat K1 - Orbit

View from above orbital plane
View from above orbital plane
View from above satellite
View from above satellite

Ground track
Ground track

The orbit data is extracted from the following two-line orbital elements,

1 15993U 85076B   16204.43158015 -.00000276  00000-0  00000+0 0  9998
2 15993  15.2570  10.7928 0004134 241.2036 143.7097  0.99762152 83492
Epoch (UTC): 22 July 2016 10:21:28
Eccentricity: 0.0004134
inclination: 15.2570°
perigee height: 35912 km
apogee height: 35947 km
right ascension of ascending node: 10.7928°
argument of perigee: 241.2036°
revolutions per day: 0.99762152
mean anomaly at epoch: 143.7097°
orbit number at epoch: 8349

The dashed part of the orbit path shows where the satellite is in the earth's shadow,  

DLR